{"data":{"norad_id":59211,"epoch":"2026-05-25T05:01:29.292384Z","epoch_age_seconds":52874,"freshness":"FRESH","line1":"1 59211U 24046L   26145.20936681  .00001649  00000+0  67796-4 0  9995","line2":"2 59211  53.1595 147.2334 0001199  89.6819 270.4319 15.30194378124939","mean_motion":15.30194378,"eccentricity":0.0001199,"inclination_deg":53.1595,"raan_deg":147.2334,"arg_perigee_deg":89.6819,"mean_anomaly_deg":270.4319,"bstar":6.7796e-5,"rev_number":12493,"period_min":94.105691453534,"perigee_km":474.41013682354,"apogee_km":476.05357467515,"semimajor_km":6853.3688557493,"source":"CELESTRAK","updated_at":"2026-05-25T13:38:18.866048Z"}}